Могды

Россия / Хабаровский край     50°30′54″N   133°52′11″E
темп.,
°C
ветер,
м/с
пор.,
м/с
влажн.,
%
обл.,
%
осадки,
мм/ч
давл.,
гПа
погр.,
м
12 мая, ср
ср1201:00+4ююз239184 0.0 101787
04:00+1ююв11945 0.0 101718
07:00+4вюв128154 0.0 1016115
10:00+10юв254274 0.0 10121281
13:00+12ю6840100 0.0 10101846
16:00+11ю5847100 0.0 10081598
19:00+8ю3869100 0.3 1008832
22:00+5ююв2490100 0.9 1008358
13 мая, чт
чт1301:00+4ююв239599 0.8 1008228
04:00+4в1393100 0.8 1006159
07:00+4в1495100 2.5 1005259
10:00+4вюв1395100 4.6 1005211
13:00+7ююв1478100 0.3 1005918
16:00+5ююз2393100 1.3 1006516
19:00+5ююв129094 0.2 1006325
22:00+4юв119497 0.6 100744
14 мая, пт
пт1401:00+4ююз1197100 1.8 100848
04:00+4ююв1297100 3.8 1008135
07:00+4зюз019696 0.1 1010101
10:00+8св227659 0.3 1010813
13:00+10зсз116280 0.1 10101047
16:00+14юз1342100 0.1 10081439
19:00+12ю2455100 0.0 1007317
22:00+8юв2471100 0.0 1007126
15 мая, сб
сб1501:00+7вюв2478100 0.0 100696
04:00+9ююв61776100 1.3 10021430
07:00+8юв31187100 8.6 998612
10:00+6зюз2493100 18.1 1001612
13:00+8ююз257668 2.3 998922
16:00+12зюз5948100 3.8 9952626
19:00+7зюз41078100 1.0 9981320
22:00+3юз2595100 2.4 999206
16 мая, вс
вс1601:00+3з3699100 1.4 999679
04:00+2зюз2698100 2.4 1000519
07:00+2зюз1598100 0.8 1001475
10:00+4з1593100 0.9 1001558
13:00+6з3680100 0.6 1000984
16:00+7сз488480 1.6 10001093
19:00+5сз259199 0.7 1001455
22:00+1ю11938 0.8 100217